Jaipur / Sanganer, India

4:37 AM IST on February 23, 2017 (GMT +0530)
Jaipur

Weather History for VIJP - March, 2014

Change the Weather History Date:

Monday, March 17, 2014

  Actual Average Record
Temperature  
Mean Temperature 82 °F -  
Max Temperature 96 °F - - ()
Min Temperature 69 °F - - ()
Cooling Degree Days 18    
Growing Degree Days 32 (Base 50)    
Moisture  
Dew Point 48 °F    
Average Humidity 31    
Maximum Humidity 56    
Minimum Humidity 11    
Precipitation  
Precipitation 0.00 in - - ()
Sea Level Pressure  
Sea Level Pressure 29.95 in    
Wind  
Wind Speed 5 mph ()    
Max Wind Speed 13 mph    
Max Gust Speed -    
Visibility 2.3 miles    
Events      
T = Trace of Precipitation, MM = Missing Value Source: Averaged Metar Reports

Daily Weather History Graph

Daily Weather History Graph

Search for Another Location

Airport or City:

Trip Planner

Search our weather history database for the weather conditions in past years. The results will help you decide how hot, cold, wet, or windy it might be!

Date:

Astronomy

Mar. 17, 2014 Rise Set
Actual Time 6:34 AM IST 6:36 PM IST
Civil Twilight 6:11 AM IST 6:59 PM IST
Nautical Twilight 5:44 AM IST 7:26 PM IST
Astronomical Twilight 5:17 AM IST 7:53 PM IST
Moon 7:18 PM IST (3/17) 6:39 AM IST (3/17)
Length of Visible Light 12h 48m
Length of Day
12h 01m
Full, 100% of the Moon is Illuminated
Mar 17
Full
Mar 24
Last Quarter
Mar 31
New
Apr 7
First Quarter
Apr 15
Full

Hourly Weather History & Observations

Time (IST) Temp. Dew Point Humidity Pressure Visibility Wind Dir Wind Speed Gust Speed Precip Events Conditions
1:00 AM 77.0 °F 50.0 °F 39% 30.01 in 1.9 mi ENE 5.8 mph - N/A   Haze
2:30 AM 74 °F 50 °F 32% 29.92 in 1 mi ENE 4.6 mph - -   Haze
3:00 AM 71.6 °F 51.8 °F 50% 29.98 in 1.9 mi East 4.6 mph - N/A   Haze
4:00 AM 71.6 °F 51.8 °F 50% 29.98 in 1.9 mi Variable 3.5 mph - N/A   Haze
5:00 AM 71.6 °F 53.6 °F 53% 29.98 in 1.9 mi Variable 1.2 mph - N/A   Haze
5:30 AM 71 °F 53 °F 43% 29.94 in 1 mi Calm Calm - -   Haze
6:00 AM 69.8 °F 53.6 °F 56% 29.98 in 1.9 mi Variable 3.5 mph - N/A   Haze
7:00 AM 69.8 °F 53.6 °F 56% 30.01 in 1.9 mi Calm Calm - N/A   Haze
8:00 AM 75.2 °F 53.6 °F 47% 30.04 in 2.5 mi Variable 2.3 mph - N/A   Haze
8:30 AM 77 °F 54 °F 35% 29.95 in 2 mi SE 5.8 mph - -   Haze
9:00 AM 78.8 °F 51.8 °F 39% 30.04 in 2.5 mi SSE 5.8 mph - N/A   Haze
10:00 AM 82.4 °F 50.0 °F 32% 30.04 in 2.5 mi South 8.1 mph - N/A   Haze
11:00 AM 86.0 °F 48.2 °F 27% 30.01 in 3.1 mi SSE 9.2 mph - N/A   Haze
11:30 AM 89 °F 46 °F 14% 29.89 in 2 mi South 9.2 mph - -  
12:00 PM 87.8 °F 46.4 °F 24% 29.98 in 3.7 mi SSE 11.5 mph - N/A   Unknown
1:00 PM 91.4 °F 46.4 °F 21% 29.95 in 3.7 mi SSW 10.4 mph - N/A   Unknown
2:00 PM 91.4 °F 42.8 °F 18% 29.92 in 3.7 mi SSW 12.7 mph - N/A   Unknown
2:30 PM 92 °F 45 °F 11% 29.81 in 2 mi WSW 11.5 mph - -  
4:00 PM 93.2 °F 39.2 °F 15% 29.86 in 3.7 mi SW 11.5 mph - N/A   Partly Cloudy
5:00 PM 93.2 °F 39.2 °F 15% 29.86 in 3.7 mi WSW 8.1 mph - N/A   Scattered Clouds
5:30 PM 91 °F 44 °F 11% 29.78 in 2 mi WSW 11.5 mph - -   Scattered Clouds
7:00 PM 87.8 °F 41.0 °F 19% 29.89 in 2.2 mi WNW 6.9 mph - N/A   Haze
8:00 PM 84.2 °F 44.6 °F 25% 29.89 in 2.2 mi West 3.5 mph - N/A   Haze
9:00 PM 82.4 °F 42.8 °F 25% 29.92 in 1.9 mi Variable 3.5 mph - N/A   Haze
10:00 PM 80.6 °F 44.6 °F 28% 29.92 in 1.9 mi West 4.6 mph - N/A   Haze
11:00 PM 78.8 °F 46.4 °F 32% 29.92 in 1.9 mi WNW 3.5 mph - N/A   Haze
11:30 PM 79 °F 45 °F 19% 30.08 in 1 mi NW 2.3 mph - -   Haze